Wind_Speed
7 7 6 7 7 6 7 7 7 7 8 8 8 8 8 9 10 11 13 14 15 16 17 17 17 17 17 16 15 15 15 15 15 15 15 15 15 15 16 16 16 16 17 17 17 17 18 18 18 18 18 19 19 19 19 19 19 20 20 20 20 20 20 21 21 21 21 21 21 22 22 22 22 22 22 23 23 23 23 24 24 24 24 25 25 25
6 6 6 6 7 7 7 7 7 7 8 8 8 8 8 9 11 12 14 15 16 16 16 16 16 16 16 16 15 15 15 15 15 15 15 15 15 15 16 16 16 17 17 17 17 17 17 17 18 18 18 18 18 18 18 19 19 19 20 20 20 20 20 21 21 21 21 21 22 22 22 22 22 23 23 23 23 24 24 24 24 25 25 25 25 25
5 5 5 6 7 7 7 6 6 7 7 8 8 9 10 11 13 14 14 14 14 15 15 15 16 16 16 15 15 14 14 14 14 15 15 15 16 16 16 17 17 17 17 17 17 17 17 17 17 17 17 18 18 18 18 19 19 19 20 20 20 20 20 21 21 21 21 22 22 22 22 23 23 23 23 23 24 24 24 24 25 25 25 25 25 25
5 5 5 5 6 6 6 6 6 6 7 8 9 10 11 12 13 14 13 13 13 14 14 14 14 14 15 15 14 14 14 14 14 15 15 16 16 17 17 17 17 17 17 17 17 16 16 17 17 17 17 18 18 18 19 19 19 20 20 20 20 20 20 21 21 22 22 22 22 23 23 23 23 23 23 23 24 24 24 24 25 25 25 25 25 25
3 4 4 4 5 5 5 5 6 7 7 9 9 10 11 12 12 12 12 12 12 13 13 13 13 13 14 14 14 14 14 14 15 15 16 16 17 17 17 17 17 17 17 17 17 17 17 17 17 18 18 18 19 19 19 20 20 20 20 21 21 21 21 21 21 22 22 22 22 22 23 23 23 23 23 23 23 24 24 24 24 25 25 25 25 25
3 3 4 4 4 5 5 6 7 7 8 9 9 10 11 11 11 11 12 12 12 12 12 12 12 13 13 14 14 14 14 15 15 15 16 16 16 16 16 16 16 16 16 16 17 17 17 18 18 18 18 19 19 19 20 20 20 20 21 21 21 21 21 21 21 21 21 22 22 22 22 22 22 22 23 23 23 23 24 24 24 24 25 25 25 25
3 3 4 4 5 5 6 7 7 7 8 8 8 9 10 10 10 11 11 11 12 12 12 12 12 13 13 13 14 14 14 14 14 14 14 15 15 15 15 15 15 16 16 16 17 17 18 18 19 19 19 19 20 20 20 20 20 20 21 21 21 21 21 21 21 21 21 21 21 21 21 21 22 22 22 23 23 23 23 24 24 24 24 25 25 25
3 4 4 4 5 5 6 7 7 7 7 7 8 8 9 9 10 10 11 12 12 12 11 12 12 12 12 12 12 13 13 13 13 13 14 14 14 14 14 15 15 16 16 17 17 18 18 19 19 19 20 20 20 20 20 20 20 20 20 20 20 20 20 20 20 20 20 20 20 20 21 21 21 21 22 22 23 23 23 23 24 24 24 25 25 25
4 4 4 5 5 6 7 7 7 7 7 7 8 8 9 9 10 10 11 11 10 10 10 10 11 11 12 12 12 12 13 13 13 13 14 14 14 14 15 15 16 16 17 17 18 18 19 19 19 20 20 20 20 20 20 20 20 20 20 20 20 20 20 19 19 19 19 19 19 20 20 20 21 21 22 22 22 23 23 23 24 24 24 24 25 25
5 5 5 6 6 7 7 7 7 7 7 8 8 9 9 10 10 10 10 9 9 8 8 9 10 12 12 12 12 12 13 13 13 13 14 14 14 15 15 16 16 16 17 17 18 18 19 19 19 19 20 20 20 20 20 20 19 19 19 19 19 19 19 19 18 18 18 19 19 19 20 20 20 21 22 22 22 23 23 23 24 24 24 25 25 25
5 5 6 6 6 7 7 7 7 7 8 8 9 9 9 9 9 9 9 9 8 8 9 9 11 12 12 13 13 13 13 13 13 13 13 13 14 14 14 15 15 16 16 17 17 18 18 18 19 19 19 19 19 19 19 19 19 19 19 18 18 18 18 18 18 18 18 18 19 19 20 20 21 21 22 22 23 23 24 24 24 25 25 25 26 26
5 5 5 5 6 6 6 7 8 8 8 8 8 8 8 8 7 7 8 9 9 10 10 10 11 11 12 13 13 13 13 13 13 13 13 13 13 13 13 14 14 15 16 17 17 18 18 18 18 18 18 19 19 18 18 18 18 18 18 18 17 17 17 17 18 18 18 19 20 20 21 21 22 22 23 23 23 24 24 24 25 25 26 26 26 27
5 5 5 5 5 6 6 7 7 7 7 7 7 6 6 6 7 7 8 9 10 10 10 11 11 11 12 12 13 13 13 13 13 13 13 12 13 13 13 14 15 16 16 17 17 18 18 18 18 18 18 18 18 18 18 18 17 17 17 17 17 17 17 18 19 19 20 20 21 21 22 22 23 23 23 23 24 24 25 25 25 26 26 26 26 26
5 5 5 5 6 6 6 6 6 6 6 6 6 6 7 8 8 8 9 9 10 10 10 11 12 12 12 12 12 12 12 12 12 12 12 13 13 14 14 15 16 17 17 18 18 18 18 18 18 18 18 18 18 17 17 17 17 17 17 17 18 18 19 19 20 21 21 22 22 22 23 23 23 23 24 24 24 25 25 25 26 26 26 26 26 26
4 5 5 5 6 6 6 6 6 6 6 6 7 7 8 8 8 8 9 9 9 9 10 11 12 12 11 11 10 10 11 11 12 12 13 13 14 14 15 16 17 17 18 18 18 19 19 19 18 18 18 18 18 17 17 17 17 18 18 19 19 20 20 21 21 22 22 22 23 23 23 23 24 24 24 24 25 25 25 25 26 26 26 27 27 27
4 4 5 5 6 6 6 5 6 6 7 7 7 8 8 8 8 8 8 8 9 9 10 10 11 11 11 10 9 9 10 10 11 13 14 15 15 15 16 16 17 18 18 18 18 19 19 19 19 19 19 18 18 18 18 18 19 19 20 20 21 22 22 22 23 23 23 23 23 23 24 24 24 24 25 25 25 25 26 26 27 27 27 27 28 28
4 4 5 5 6 6 7 7 7 7 8 8 8 8 8 8 7 7 8 8 9 9 9 9 9 9 9 10 10 9 9 10 12 14 15 17 17 17 16 17 17 18 19 19 19 19 18 18 18 19 19 19 19 19 19 20 21 21 22 22 23 23 23 23 23 23 23 24 24 24 24 25 25 25 25 25 25 26 26 27 27 27 28 28 28 28
5 5 5 6 6 7 7 7 7 7 8 8 8 7 7 7 7 7 8 8 9 9 9 9 9 8 8 9 10 10 11 12 13 15 17 18 18 18 17 17 17 18 19 19 19 18 18 19 19 19 20 20 20 21 21 22 22 23 23 23 23 23 23 23 23 24 24 24 25 25 25 25 25 25 25 25 25 26 26 27 27 27 28 28 28 28
5 5 6 6 7 8 8 8 7 7 7 7 7 7 8 8 8 8 8 9 9 9 10 10 10 11 11 11 12 13 13 13 14 16 17 19 19 19 17 16 16 17 18 19 19 19 19 19 20 20 21 21 21 22 22 22 23 23 23 23 23 23 24 24 24 24 25 25 25 25 25 25 25 25 25 25 25 25 26 26 26 27 27 28 28 28
6 6 7 7 7 8 8 7 7 6 6 6 7 8 8 9 9 9 9 9 9 10 10 11 11 12 12 13 14 14 14 14 15 16 18 19 20 19 17 15 15 17 18 19 19 19 19 20 20 21 21 21 21 21 22 22 23 23 24 24 24 24 25 25 25 25 25 25 25 25 25 25 25 25 25 25 25 25 25 26 26 26 26 27 28 28
7 7 7 7 7 7 7 7 7 6 7 7 8 8 9 9 9 9 9 9 9 10 10 11 12 12 13 13 14 15 15 15 15 16 17 18 18 18 16 15 15 16 18 19 19 19 19 20 20 21 21 21 21 22 23 23 24 24 25 25 25 25 25 25 25 25 25 25 25 25 25 25 25 25 25 25 25 25 25 26 26 26 26 27 27 28
8 8 8 7 7 8 8 8 8 7 7 8 8 8 9 9 9 9 9 9 9 10 11 12 13 13 14 15 16 17 16 15 15 15 16 16 17 18 16 14 15 16 18 19 19 19 19 20 21 21 21 22 22 23 24 24 25 25 25 25 25 25 25 25 25 25 25 25 25 25 25 25 25 25 25 25 25 26 26 26 26 26 26 26 27 27
8 9 9 8 9 9 9 9 9 8 8 8 9 9 10 10 10 10 10 10 10 11 13 14 15 15 16 17 17 17 16 15 15 14 14 14 15 17 15 14 15 16 18 19 19 19 20 20 21 21 22 22 23 23 24 25 25 25 26 26 26 26 25 25 25 25 25 25 25 25 25 25 25 25 26 26 26 26 26 26 26 26 26 26 26 27
8 9 9 9 9 9 9 9 9 9 8 8 9 10 11 11 11 11 11 11 11 12 13 15 16 17 17 17 17 16 15 14 13 13 13 13 15 16 15 15 15 17 18 19 19 19 20 21 21 22 22 23 23 24 24 25 26 26 26 26 26 25 25 25 25 25 25 25 25 25 25 26 26 26 26 26 26 26 26 26 26 26 26 26 26 26
9 9 9 9 9 9 9 10 9 9 9 9 11 12 12 11 11 10 11 12 12 13 14 15 15 16 16 15 15 14 13 12 12 12 13 13 15 16 16 15 15 16 18 19 19 19 20 21 22 22 23 23 24 24 25 25 26 26 25 25 25 25 24 24 24 25 25 25 26 26 26 26 26 26 26 26 26 26 26 26 26 26 26 26 26 26
10 11 11 11 11 11 11 11 11 11 11 11 12 12 11 11 11 11 11 12 12 13 13 14 14 14 15 14 13 13 13 11 11 11 12 12 14 16 16 15 15 16 18 19 20 20 20 21 22 23 23 24 24 25 25 24 24 24 24 24 24 24 24 24 25 25 25 26 26 26 26 26 26 26 26 26 26 26 26 26 25 25 25 26 26 26
10 11 11 12 12 12 12 12 13 13 13 13 14 13 13 13 13 13 12 13 13 13 13 12 12 13 14 13 13 13 12 11 10 11 12 13 14 15 16 15 15 16 18 19 20 20 20 22 23 24 24 24 24 24 23 23 22 22 23 23 23 24 24 25 25 25 26 26 26 26 25 25 25 25 25 25 26 26 25 25 25 25 26 25 26 26
9 9 10 10 11 11 12 13 13 14 14 15 15 14 14 14 13 13 14 14 13 12 13 12 12 11 12 12 13 13 12 12 12 12 12 13 13 14 15 14 14 15 17 19 20 21 21 22 22 23 22 22 22 21 21 21 21 21 22 23 24 24 25 25 25 25 25 25 25 25 25 25 25 25 25 25 26 26 26 25 25 25 25 25 24 24
8 8 8 9 10 11 12 13 14 14 15 15 15 14 14 14 14 14 15 14 13 12 13 13 13 12 12 13 14 14 14 14 14 13 12 12 13 13 14 13 13 14 16 18 20 21 21 20 20 20 20 20 20 19 20 20 20 21 23 24 24 24 24 24 24 24 24 24 24 25 25 25 25 25 25 25 25 25 25 25 25 25 24 23 22 22
8 9 9 9 10 11 12 12 13 13 13 14 14 14 14 14 15 15 14 13 13 12 13 13 13 13 12 12 12 12 12 12 11 10 9 10 11 12 12 13 14 14 15 15 15 15 18 19 18 17 17 18 18 19 20 20 21 22 23 24 24 23 23 23 23 23 24 24 24 24 25 25 25 25 25 25 25 25 25 25 24 24 23 22 22 22
10 10 10 10 11 11 11 11 12 12 12 12 12 12 13 13 14 14 13 12 12 12 12 12 12 12 12 10 7 5 6 9 7 5 6 7 9 11 12 13 15 15 14 12 8 7 10 16 18 17 16 18 19 20 21 21 21 22 22 23 23 23 23 23 23 23 23 23 23 24 24 24 24 24 24 24 24 24 24 24 23 23 22 22 22 22
10 10 11 11 11 11 11 11 11 11 11 11 11 11 11 12 12 12 12 11 12 12 12 12 12 12 12 11 9 8 9 10 9 7 7 9 11 13 13 14 15 15 14 13 11 8 6 11 17 21 20 21 21 22 22 21 21 21 22 22 23 23 23 23 22 22 22 22 22 22 23 23 23 23 23 24 24 24 23 23 23 22 22 21 21 21
10 11 11 11 11 11 11 10 10 10 10 10 10 10 10 10 10 10 11 11 11 11 11 12 12 13 13 14 14 15 16 15 13 11 10 11 12 13 14 14 14 15 15 15 15 15 12 14 19 23 24 23 22 21 21 21 21 21 21 22 23 23 23 22 22 22 22 22 22 22 23 22 23 23 23 23 23 23 22 22 22 21 21 21 21 21
10 10 11 11 11 11 10 10 10 10 10 10 9 9 9 9 9 10 10 10 11 11 12 12 12 13 13 13 14 16 17 17 14 12 11 12 12 13 14 15 15 15 15 15 16 16 17 19 20 21 22 24 23 22 21 21 21 21 21 21 22 23 23 22 22 22 22 23 23 23 23 22 22 22 22 22 22 21 21 21 21 21 21 21 21 22
10 10 10 10 10 10 10 9 9 9 9 9 9 9 9 9 9 9 10 11 11 12 12 13 14 14 14 14 14 16 17 16 13 11 11 11 12 13 15 15 15 15 14 15 15 15 16 18 20 20 20 22 24 23 21 20 20 20 21 21 22 23 23 23 23 23 23 23 23 23 23 23 22 22 22 22 21 21 21 22 22 22 22 23 23 23
10 10 10 9 9 9 9 8 8 8 8 8 8 8 8 8 9 9 10 11 11 12 13 14 15 15 16 16 16 17 18 17 15 13 12 12 13 14 15 16 16 15 14 15 16 15 16 18 20 21 20 20 21 22 22 21 20 21 21 22 23 23 24 24 23 23 23 23 23 23 23 23 23 22 22 22 22 22 23 23 23 23 24 24 24 24
10 9 9 9 8 8 7 7 7 7 7 7 7 7 7 8 9 10 10 11 12 13 14 15 15 16 17 18 19 20 20 20 18 17 15 15 15 15 16 17 17 17 16 16 16 17 17 18 19 20 20 19 18 19 21 22 22 22 23 23 24 24 24 24 24 23 23 23 23 23 23 23 22 23 23 23 23 23 23 23 23 23 23 23 23 23
9 9 8 8 7 7 7 7 7 6 6 7 7 7 8 9 10 11 11 12 13 14 15 15 16 17 18 19 20 21 22 22 22 21 20 19 19 19 19 19 19 19 18 17 18 18 18 17 16 15 17 19 20 21 22 23 23 24 25 25 25 25 25 24 23 23 22 22 23 23 23 23 23 24 24 24 24 23 23 23 23 23 22 22 22 23
8 8 8 7 7 7 7 7 7 7 7 7 8 9 10 10 11 12 12 13 13 14 14 15 16 17 18 19 20 21 22 23 24 24 24 24 24 23 22 21 21 21 20 20 19 19 19 18 17 16 16 18 21 23 23 23 23 24 25 26 27 26 25 24 22 22 22 23 23 24 24 24 24 24 24 24 23 23 22 23 22 22 22 22 22 22
7 7 7 7 7 7 7 7 7 7 8 9 9 10 10 11 11 12 12 12 12 13 14 14 15 16 17 18 19 20 21 22 23 24 25 26 26 25 24 23 23 22 22 21 21 21 20 20 20 21 21 20 21 22 24 24 24 24 24 24 25 25 25 24 24 24 24 24 24 24 24 24 24 23 23 23 22 22 22 22 22 22 22 21 21 22
7 8 8 8 8 7 7 7 7 8 9 9 10 10 10 11 11 11 11 12 12 12 12 13 14 15 16 17 18 19 20 21 22 23 24 24 25 25 25 25 24 24 23 22 22 21 21 21 22 22 23 22 23 24 24 25 25 24 24 23 24 27 28 27 26 25 24 23 23 23 23 23 23 23 23 23 23 23 23 23 23 23 23 22 22 22
8 8 8 8 7 7 7 7 8 9 9 10 10 10 10 10 10 11 11 11 12 12 12 12 13 14 15 16 17 17 18 19 20 21 22 23 23 24 25 25 25 24 23 22 22 22 22 22 22 22 22 22 22 23 24 25 25 24 23 23 25 27 28 27 25 23 22 22 23 23 23 23 24 24 25 25 25 24 24 24 24 24 24 23 23 23
8 8 8 8 8 8 8 9 9 9 10 10 10 10 11 11 11 11 11 12 12 12 12 12 13 14 15 16 17 17 17 18 19 19 20 21 21 22 24 25 25 25 24 23 22 22 22 22 22 22 22 22 22 23 24 25 25 25 24 24 24 24 22 24 25 24 23 23 24 24 24 25 25 26 26 25 25 25 24 24 24 24 24 24 24 24
8 8 8 8 8 8 9 9 9 9 9 10 10 11 11 11 11 11 12 12 12 12 12 13 13 14 15 16 16 17 16 16 16 16 17 18 19 20 21 22 23 24 24 23 22 22 22 22 23 23 23 22 22 22 23 25 25 26 25 25 24 23 23 25 26 27 26 25 25 25 25 25 26 26 26 25 25 24 24 24 24 24 24 24 24 24
8 8 8 8 8 8 9 9 9 9 10 11 11 11 11 12 11 11 12 12 12 13 13 13 13 13 14 15 16 16 16 15 15 15 15 15 16 17 18 20 21 22 23 23 23 23 22 22 23 23 23 22 22 22 23 24 25 25 26 26 25 25 26 27 27 27 26 26 26 26 26 26 26 25 25 25 25 24 24 23 23 24 24 24 24 25
8 8 8 9 9 9 9 9 10 10 11 11 12 12 12 12 11 12 12 12 13 13 13 13 13 13 14 15 15 15 16 16 16 15 15 15 15 15 16 18 19 20 21 22 23 24 24 24 24 24 23 23 23 24 24 24 24 24 25 26 25 25 26 26 26 26 25 25 26 26 26 25 25 24 24 24 25 25 24 23 23 24 24 24 24 25
8 8 9 9 9 9 10 10 10 11 11 12 12 12 11 11 12 12 12 13 13 14 14 14 14 14 15 15 15 15 16 16 16 16 16 16 15 15 16 17 18 19 20 21 22 23 24 25 25 24 23 23 24 25 26 25 24 23 24 25 25 24 25 25 26 26 25 25 25 25 26 25 24 24 24 24 25 25 24 24 23 23 23 23 23 24
8 8 9 9 9 10 10 10 11 11 11 12 12 12 11 12 12 12 13 13 13 13 14 14 14 14 15 16 16 16 16 16 17 17 17 17 16 16 16 16 17 17 19 20 21 22 23 25 26 26 25 24 24 24 26 26 25 24 24 24 24 24 24 25 26 25 24 24 25 25 25 23 22 22 23 23 24 25 25 24 24 23 22 22 23 24
8 8 9 9 10 10 11 11 11 11 12 12 12 12 12 12 12 12 13 13 13 13 13 14 14 15 15 15 16 16 16 16 17 17 17 17 17 17 17 17 17 18 18 19 20 22 23 24 25 26 26 26 26 26 26 26 26 25 24 24 23 23 23 24 25 25 24 23 24 24 24 23 22 22 21 23 24 26 26 26 25 24 22 22 22 23
9 9 9 10 10 11 11 11 11 11 12 12 13 13 13 13 13 13 13 14 14 14 14 14 14 15 15 16 16 16 16 17 17 17 18 17 17 17 17 17 18 18 18 19 19 20 20 21 22 23 23 24 25 26 26 27 26 26 25 24 23 23 23 24 24 24 23 23 23 24 24 23 23 22 21 22 24 25 26 26 25 24 22 21 21 22
9 9 10 10 10 11 11 11 12 12 12 13 13 13 14 14 14 13 13 14 14 14 14 14 15 15 16 16 17 17 17 17 17 18 18 18 18 17 17 17 17 17 17 17 17 17 16 16 16 18 20 20 21 23 25 25 25 25 24 24 23 22 22 23 23 23 23 24 24 24 24 24 23 22 21 20 21 23 24 25 25 24 22 21 21 21
Wind_Direction
174 176 183 191 197 205 217 224 231 240 249 254 257 260 263 267 271 275 279 282 284 285 285 286 286 287 287 287 286 284 283 283 284 284 285 285 286 287 288 288 288 287 287 286 286 285 285 284 284 283 283 283 283 282 282 282 282 282 282 283 283 282 282 281 281 281 282 282 282 282 281 282 282 282 282 281 281 281 281 281 281 281 281 281 281 282
177 180 187 196 207 217 227 231 233 239 247 254 258 262 266 271 276 279 282 282 283 283 283 284 286 287 287 287 286 285 284 285 285 286 286 286 287 287 288 289 289 288 288 287 286 285 285 284 284 283 283 283 283 282 282 282 282 282 282 282 282 282 282 281 280 280 281 282 282 281 281 281 281 281 281 281 281 280 280 280 280 280 280 281 281 280
170 182 194 204 213 221 229 234 237 241 248 255 260 265 270 275 279 281 282 281 281 281 281 283 286 287 287 287 287 287 286 286 287 287 287 287 288 288 289 289 289 290 289 288 287 286 285 284 284 283 283 283 283 283 283 282 282 282 282 282 282 282 282 281 279 279 280 280 280 280 280 280 280 280 280 280 280 280 280 280 280 280 280 281 281 281
168 183 198 205 213 221 228 237 244 250 254 259 263 267 272 276 279 279 279 278 279 280 281 282 285 286 287 288 288 288 288 288 288 288 288 288 289 289 289 289 290 289 289 288 288 287 286 285 285 284 284 284 284 284 283 283 282 282 282 282 282 282 283 282 280 279 279 279 279 279 279 279 279 280 280 280 280 280 280 280 280 280 280 280 280 280
182 196 205 210 217 227 238 245 253 259 262 263 266 269 273 275 275 276 277 277 278 280 281 283 284 285 287 288 289 290 290 290 290 289 289 289 289 289 289 289 289 288 288 288 287 287 287 286 286 286 286 286 285 285 284 283 283 282 282 282 282 282 283 282 282 281 281 280 280 280 280 280 280 280 280 281 280 280 280 280 280 280 280 280 280 279
207 218 221 224 230 240 248 254 259 263 265 266 267 269 271 271 271 272 274 276 278 280 282 283 284 286 287 289 290 291 292 291 291 290 290 290 289 289 289 289 289 289 288 288 288 287 287 287 287 287 287 286 286 285 285 284 283 283 282 282 282 282 282 282 282 282 282 281 281 281 281 280 280 280 279 279 279 279 279 279 279 279 279 279 279 279
232 236 234 236 241 248 256 260 262 262 263 265 268 269 270 270 270 272 274 276 279 280 282 283 285 287 289 291 293 294 294 295 294 293 292 292 291 291 290 290 290 290 290 289 289 289 288 288 287 287 287 286 286 285 285 284 284 283 283 282 282 282 282 282 282 282 281 281 281 280 279 279 279 278 278 278 278 278 278 278 278 278 278 278 278 278
241 246 242 243 250 257 261 263 261 258 256 260 265 270 272 274 274 275 277 278 279 280 282 285 287 290 292 294 296 297 297 297 297 296 295 294 293 292 292 292 291 291 291 291 290 290 289 288 287 287 286 285 285 284 284 284 284 284 283 283 283 283 283 282 282 282 281 280 280 279 279 278 278 277 277 277 277 277 277 277 278 278 278 278 278 278
234 244 247 249 254 261 265 265 260 255 252 255 261 268 275 279 280 280 280 279 278 279 283 288 292 294 295 296 297 298 298 297 297 296 295 294 293 293 293 292 292 292 292 291 291 290 290 289 288 287 287 286 285 284 284 284 284 284 284 284 284 283 283 283 283 282 282 281 280 280 279 278 278 278 277 277 277 277 277 277 277 277 277 277 277 277
229 236 244 251 254 258 262 264 263 258 253 254 258 264 270 275 278 280 280 280 281 283 287 291 295 297 298 298 298 298 299 298 297 296 295 294 293 293 293 293 293 294 294 293 293 293 292 291 290 289 288 287 286 285 285 285 284 284 284 284 284 284 284 283 283 283 282 282 281 281 280 280 279 279 278 278 278 277 277 277 277 277 276 276 277 277
229 233 241 251 256 256 257 259 262 261 257 255 257 260 262 263 268 275 281 286 290 293 294 294 295 296 298 299 300 300 300 300 299 299 298 297 296 295 295 295 295 295 296 295 295 294 293 292 292 291 290 288 287 287 286 286 285 285 285 285 284 284 284 284 284 284 283 283 283 283 282 281 281 280 279 279 278 278 277 277 277 276 276 276 276 276
229 234 241 250 256 258 257 258 259 257 252 250 253 258 260 261 266 275 284 291 295 297 297 296 295 295 296 298 299 300 301 301 301 302 302 301 300 300 299 299 299 298 298 297 296 295 294 294 293 292 291 290 289 288 288 287 287 287 286 286 285 285 285 284 285 285 285 284 284 284 283 283 282 281 281 280 279 278 278 278 277 276 276 275 275 274
229 235 241 246 250 252 254 256 255 250 245 244 252 263 273 278 282 285 286 288 290 294 297 298 297 297 296 296 297 299 300 301 302 303 303 303 303 303 302 302 301 300 300 299 297 296 296 295 295 293 292 291 290 290 289 289 288 288 288 287 287 287 286 286 286 286 286 286 285 285 284 284 283 282 282 281 280 279 278 278 277 277 276 275 275 274
232 236 240 244 247 249 250 251 253 255 255 258 266 276 283 287 288 287 286 285 288 292 297 299 299 299 299 298 298 298 300 301 303 304 304 303 303 303 303 302 301 300 300 298 297 296 296 296 295 294 293 292 291 291 290 290 290 289 289 289 288 288 288 288 287 287 287 287 286 286 285 285 284 283 283 282 281 280 279 278 278 277 276 276 275 275
237 243 248 251 253 254 254 258 263 269 274 278 281 283 283 283 283 284 285 288 292 298 302 301 301 301 300 300 300 300 302 304 306 306 305 303 302 301 302 302 301 300 298 297 296 295 296 295 295 294 293 292 292 291 291 290 290 290 289 289 289 289 289 289 288 288 288 287 287 286 285 285 285 284 283 282 281 280 279 279 278 277 276 275 275 275
250 254 259 263 264 265 269 275 280 283 283 283 282 280 280 280 281 284 288 292 298 302 304 305 305 304 303 302 303 304 307 308 309 308 306 303 301 301 302 302 301 299 297 295 295 295 295 295 294 294 293 292 291 290 290 290 290 290 289 289 290 290 289 289 289 288 288 287 287 286 286 285 285 284 283 282 282 281 280 279 278 277 276 275 275 274
252 256 260 266 270 273 276 279 279 279 279 279 277 276 276 280 285 289 292 295 299 301 302 304 304 305 305 306 307 309 312 313 312 309 306 302 300 300 301 302 300 298 296 294 294 294 294 294 293 292 291 291 291 290 290 290 290 290 289 289 289 289 289 289 289 289 288 287 287 286 286 285 284 284 283 282 282 281 281 280 279 278 276 275 275 274
247 252 258 264 268 271 273 273 272 271 272 273 275 277 279 282 286 289 291 293 294 296 296 296 296 297 299 302 303 306 313 314 312 309 305 301 299 299 301 301 299 296 294 293 293 293 293 293 292 292 291 291 291 291 290 290 290 290 290 290 290 290 290 290 289 289 288 288 287 287 286 285 285 284 284 283 282 282 281 281 280 278 277 276 276 275
250 252 255 259 263 265 267 266 266 266 269 272 278 283 285 286 286 287 286 286 286 287 289 290 289 290 292 293 295 301 308 311 311 307 303 299 298 299 301 301 298 294 292 292 292 293 294 293 293 293 292 292 291 291 291 291 291 290 290 290 290 290 290 290 289 289 288 288 287 287 287 286 286 285 284 284 283 283 282 282 281 280 279 277 276 275
259 256 255 257 261 265 264 263 262 265 271 278 284 287 287 287 285 283 283 283 282 282 283 285 285 286 288 290 293 298 305 309 309 305 300 297 295 297 299 299 296 293 291 291 292 294 294 295 295 294 293 293 292 292 292 291 291 291 291 291 291 291 290 290 290 289 289 288 288 288 287 287 286 286 285 285 284 283 283 282 281 281 280 278 277 276
268 264 261 262 265 267 267 265 265 269 276 282 285 286 283 282 280 279 280 283 282 282 282 282 283 285 288 291 294 297 302 304 304 300 297 294 293 294 296 296 294 292 291 292 294 295 296 296 295 295 294 294 293 293 292 292 292 292 292 291 291 291 291 291 290 290 289 289 289 288 288 287 287 286 286 285 284 283 283 282 282 281 281 280 278 277
271 268 267 267 268 269 269 269 270 272 277 281 283 282 279 278 278 280 283 285 284 283 282 282 283 286 289 290 291 293 295 295 293 291 291 290 289 290 293 294 293 292 291 292 295 297 297 296 296 295 294 294 293 293 292 292 292 292 292 292 292 291 291 291 290 290 289 289 289 288 288 287 287 286 286 285 285 284 284 283 283 282 281 281 280 279
266 267 268 268 267 266 267 268 270 272 276 279 280 278 276 275 276 278 282 283 284 284 285 286 287 288 288 287 288 289 290 287 283 282 282 282 284 288 293 295 295 292 291 292 296 298 298 297 296 295 294 294 293 293 292 292 292 292 292 292 292 291 291 291 290 290 290 289 289 289 288 288 288 287 287 286 286 285 285 284 284 283 282 281 281 280
265 265 265 264 263 262 262 264 266 270 274 278 280 279 278 278 278 279 280 282 284 286 287 289 289 288 286 286 287 287 286 283 279 275 273 275 280 285 291 295 295 293 291 293 295 298 298 297 296 295 295 294 293 293 292 292 292 292 292 292 292 291 291 291 291 290 290 290 290 289 289 289 288 288 288 287 287 286 285 285 284 284 283 282 281 280
265 264 263 262 261 261 263 265 267 269 271 275 278 281 284 289 292 292 290 287 285 285 286 286 286 286 286 287 288 287 286 282 276 271 269 273 279 284 288 292 293 292 291 293 296 298 298 297 296 296 295 294 293 293 292 292 292 292 292 292 292 292 291 291 291 291 291 290 290 290 289 289 289 288 288 288 287 286 286 285 284 284 283 282 282 281
264 263 263 264 265 265 266 267 268 268 269 270 271 275 281 289 293 292 287 283 281 281 283 283 283 284 285 287 286 285 285 283 276 270 268 274 280 284 287 290 290 290 291 294 297 298 299 298 297 296 296 294 294 293 293 293 293 293 293 293 292 292 292 292 292 292 291 291 290 290 289 289 289 288 288 287 287 286 286 285 285 284 284 283 282 281
272 269 266 265 266 267 267 267 267 267 267 266 267 269 273 281 284 283 279 277 276 278 280 281 282 284 285 285 283 283 284 282 277 272 271 275 280 282 285 287 289 291 293 295 297 298 298 297 296 295 295 294 294 295 295 294 294 294 294 293 293 293 293 293 293 292 292 291 291 290 290 289 289 288 287 287 287 287 286 286 285 285 284 284 283 282
284 279 274 269 269 269 268 267 267 267 266 266 266 267 269 272 273 273 271 272 274 276 275 275 277 281 283 283 283 283 284 281 277 274 273 274 274 276 280 286 290 293 296 297 298 298 297 295 294 293 293 293 294 295 295 295 295 295 295 295 294 294 294 293 293 293 292 292 291 291 290 290 289 288 288 288 287 287 287 286 286 286 286 285 283 282
287 284 282 278 275 274 274 271 270 268 266 266 265 264 263 263 263 264 265 269 271 272 271 270 271 274 278 281 284 285 283 279 276 273 269 268 267 271 278 286 292 296 300 302 302 301 298 294 293 292 292 294 295 296 296 297 297 297 296 296 295 295 294 294 294 294 293 293 292 291 291 290 289 289 289 288 287 287 287 287 287 287 286 285 283 281
290 289 286 282 279 277 276 275 273 270 267 264 263 261 259 257 257 258 261 264 265 265 265 266 267 270 274 281 285 286 283 279 276 273 267 265 268 275 283 290 294 297 302 305 306 304 301 299 297 295 294 296 298 298 298 299 298 298 297 297 296 295 295 295 295 294 294 293 293 292 291 290 290 289 289 288 288 288 287 287 287 287 286 284 282 281
293 290 287 283 281 278 275 273 271 269 266 263 261 259 257 255 254 254 256 257 258 258 260 262 265 267 269 274 279 282 279 278 280 281 278 278 278 281 288 291 293 295 298 300 303 305 305 304 303 301 300 300 299 299 298 298 298 297 297 297 296 295 295 296 296 295 295 294 293 292 292 291 291 290 290 289 288 288 287 287 287 286 284 283 281 279
289 287 284 282 280 278 274 271 268 266 264 263 261 258 255 253 251 251 251 251 252 253 256 259 262 264 263 262 261 262 268 272 276 283 290 290 286 284 287 288 289 291 292 291 288 288 295 300 302 303 303 302 300 299 298 297 297 296 296 295 295 294 295 296 297 296 296 295 294 294 293 292 292 291 290 289 288 288 287 287 286 284 283 281 279 278
285 283 282 281 279 276 273 269 266 264 262 261 259 257 255 252 249 248 248 248 249 250 253 257 260 262 262 260 260 261 264 267 272 278 284 286 284 284 284 285 286 289 290 289 285 281 280 286 294 299 301 301 299 299 298 297 296 295 294 294 294 294 296 297 297 297 297 296 296 295 294 293 292 291 290 290 289 288 287 286 285 283 281 279 278 276
285 283 281 280 278 275 271 268 265 262 260 259 257 256 255 253 250 248 248 249 249 249 250 252 255 258 261 263 263 264 265 267 270 274 278 278 279 280 283 284 285 288 290 289 287 284 282 284 289 295 299 300 299 298 298 297 296 295 294 293 293 294 295 297 297 297 297 296 296 295 294 293 292 291 291 290 289 288 287 286 285 284 282 280 278 277
285 283 282 280 277 275 271 268 265 263 261 260 259 257 256 255 253 252 252 252 252 251 250 250 252 253 256 260 264 266 268 269 271 273 275 276 278 281 283 283 283 285 287 287 287 288 287 288 290 293 296 298 299 299 298 297 297 296 295 294 293 293 294 295 296 296 296 296 295 294 293 293 292 291 290 289 288 288 287 287 286 285 283 281 279 278
284 283 281 279 277 274 272 269 268 266 265 264 262 261 259 259 259 259 259 259 257 256 254 253 253 253 254 256 260 264 267 270 272 274 274 276 279 281 282 281 281 282 284 284 285 286 287 289 291 292 293 295 297 298 299 300 300 299 297 296 295 294 294 294 294 295 295 294 294 293 292 292 291 290 289 289 288 288 288 288 287 286 284 282 280 278
282 281 279 278 276 275 274 273 273 272 271 271 270 269 268 267 268 268 267 266 264 262 261 260 258 257 256 257 258 261 265 269 272 272 272 272 274 276 277 277 278 279 279 281 282 284 286 288 290 291 291 290 292 296 299 302 302 301 298 297 296 296 295 294 294 293 293 292 292 291 291 291 291 290 289 289 288 288 287 286 285 284 283 281 280 278
278 278 279 279 279 279 280 279 279 279 280 280 280 279 278 277 276 275 274 272 269 267 266 265 264 263 261 260 261 262 265 268 270 270 270 269 269 270 271 273 275 275 273 274 276 279 282 284 287 289 290 289 290 292 295 299 300 300 299 298 298 296 295 294 294 293 292 291 291 291 291 291 290 290 289 288 288 286 285 283 283 282 281 280 279 278
276 278 281 283 284 284 284 283 284 284 286 286 286 285 285 284 282 280 277 275 272 270 268 267 267 267 266 266 266 266 267 268 269 271 271 270 269 267 267 268 270 271 271 270 270 271 273 275 277 281 285 288 290 292 293 295 295 297 298 300 300 298 296 296 295 294 293 292 292 291 291 290 289 288 287 286 285 284 282 282 282 281 280 280 280 279
279 281 283 284 284 284 283 284 286 288 290 291 290 289 289 287 285 282 280 277 275 273 272 271 270 270 270 270 269 269 269 270 271 273 273 272 271 268 266 265 266 269 270 269 268 267 267 268 271 274 278 281 285 289 291 291 292 294 297 299 299 298 297 297 297 295 294 292 291 290 289 289 289 287 286 285 284 282 281 280 280 280 280 279 279 279
281 282 282 282 282 284 284 286 289 292 294 295 294 292 289 288 286 285 284 282 280 278 278 277 276 276 276 274 273 271 271 272 273 274 275 275 274 272 269 265 265 266 267 267 266 265 265 265 268 272 274 276 280 283 286 287 289 291 293 293 292 294 295 296 295 294 293 292 290 289 288 289 289 288 287 285 283 281 279 278 278 278 279 277 276 275
279 279 279 281 284 287 290 291 294 295 296 295 292 289 288 287 286 286 286 285 284 282 282 282 282 281 281 279 277 275 274 274 275 277 277 278 277 274 271 267 265 264 264 264 264 264 264 264 266 269 272 274 277 281 283 285 287 288 288 288 290 292 295 294 294 293 292 291 290 290 289 288 288 287 286 284 282 280 279 278 277 276 276 275 274 272
276 277 279 283 286 290 292 295 296 296 295 292 289 288 288 288 286 286 285 285 284 284 283 283 283 283 283 283 282 281 280 279 279 278 278 277 276 274 272 269 266 264 263 262 263 265 266 266 266 266 269 272 274 277 280 284 286 286 286 286 288 291 292 293 293 294 292 290 289 288 287 285 284 284 283 282 281 279 278 277 276 274 273 272 271 270
276 278 282 286 290 293 294 294 294 294 293 291 289 288 289 288 286 285 284 283 283 284 284 285 285 285 283 283 284 286 286 285 284 282 279 276 275 274 273 270 268 265 262 260 261 265 268 269 269 269 271 272 272 274 277 281 283 285 285 285 284 283 283 286 289 291 290 288 286 285 284 283 282 282 282 281 280 279 278 277 276 274 273 272 271 270
278 282 286 289 291 293 292 292 292 292 292 291 289 288 288 288 287 284 283 282 283 284 284 286 287 286 284 284 286 289 290 290 289 286 283 280 277 275 273 271 268 266 263 261 260 262 265 268 271 273 274 273 272 272 274 277 280 282 283 283 282 280 279 281 284 286 286 285 285 284 283 282 282 282 281 281 280 279 278 277 275 274 274 272 271 269
279 283 286 288 290 290 290 291 292 293 292 291 289 288 289 290 288 285 283 283 283 284 284 284 283 281 281 284 287 290 292 292 292 291 288 286 282 279 275 272 270 268 266 264 263 263 262 265 269 273 276 276 275 274 273 274 277 279 281 282 282 281 281 281 282 282 282 282 282 283 283 282 281 280 280 280 281 280 279 277 276 275 274 273 271 269
280 282 284 287 289 290 290 292 293 292 292 291 290 290 290 291 290 288 285 283 282 283 284 283 280 278 278 282 285 288 289 290 292 292 291 290 287 283 280 277 274 271 269 268 267 266 265 265 266 269 272 275 277 277 276 276 275 276 278 279 280 280 280 280 281 281 281 281 280 281 282 283 282 281 280 281 282 282 282 281 279 277 275 274 272 270
280 282 284 287 289 290 290 291 290 290 290 291 291 291 291 292 291 289 287 286 284 283 284 283 281 279 279 280 282 283 285 286 288 290 291 291 290 288 285 283 280 277 274 272 271 269 268 268 267 266 266 268 271 274 276 276 275 274 275 276 277 277 277 279 281 282 282 281 281 282 282 282 281 281 282 283 284 285 285 284 283 281 278 276 274 272
279 281 283 286 287 287 288 288 288 289 290 291 293 293 292 293 292 289 288 287 285 284 282 281 281 281 281 281 282 282 284 285 287 288 289 290 291 290 289 288 286 285 283 280 278 276 273 272 269 266 262 261 263 267 271 274 275 274 274 274 275 275 276 278 281 284 284 284 285 286 286 285 283 282 282 284 285 286 287 287 286 284 282 279 277 275
279 280 282 282 283 284 285 286 287 288 289 290 292 292 293 293 292 289 287 285 283 281 278 278 278 279 280 281 282 283 284 285 286 287 287 289 290 291 290 290 289 289 289 287 285 284 281 280 277 273 267 261 259 261 265 270 273 275 276 275 275 275 277 280 283 286 288 289 290 291 291 289 287 285 283 283 284 286 287 288 287 287 285 283 281 278
280 281 281 281 281 283 284 285 286 287 287 289 290 291 291 292 290 288 286 283 281 278 276 276 275 276 278 280 281 282 283 284 284 285 286 288 289 289 289 288 289 289 289 290 290 290 289 288 286 284 280 272 264 260 261 266 271 276 278 279 279 279 281 283 285 288 290 291 292 293 292 291 289 286 283 281 282 284 287 288 288 288 288 287 285 282
Height
805 806 807 807 807 808 808 808 809 809 810 811 811 812 812 812 812 812 812 812 812 812 811 810 809 808 807 806 805 804 804 803 803 802 801 801 800 799 799 798 798 798 798 797 797 797 797 796 796 796 796 796 795 795 795 795 795 795 795 795 795 795 794 794 794 794 793 793 793 793 792 792 792 791 791 791 791 790 790 790 790 790 789 789 789 789
805 805 806 806 807 807 807 808 808 808 809 810 810 811 811 811 811 811 810 811 810 810 809 808 807 806 805 804 803 803 803 802 801 801 800 799 799 798 798 797 797 797 796 796 796 795 795 795 795 794 794 794 794 794 793 793 793 793 793 793 793 793 793 793 792 792 792 791 791 791 791 790 790 790 789 789 789 789 789 788 788 788 788 788 787 787
804 804 805 806 806 806 807 807 807 808 808 809 809 809 810 810 809 809 809 809 809 809 808 807 806 804 803 803 802 802 801 800 800 799 799 798 798 797 797 796 796 795 795 795 794 794 794 793 793 793 793 793 792 792 792 792 792 792 792 792 792 792 791 791 790 790 790 790 789 789 789 788 788 788 788 788 787 787 787 787 786 786 786 785 785 785
803 804 805 805 806 806 806 807 807 807 808 808 808 808 808 808 808 808 808 808 808 807 807 806 805 803 803 802 801 800 800 799 798 798 798 797 796 796 795 795 794 794 794 793 793 793 793 792 792 792 791 791 791 791 790 790 790 790 790 790 790 790 789 789 789 788 788 788 788 787 787 787 787 786 786 786 785 785 785 784 784 784 784 783 783 783
803 804 805 805 806 806 806 806 807 807 807 807 807 807 808 808 808 808 807 807 807 806 805 804 803 803 802 801 800 799 798 798 797 797 796 796 795 795 794 794 793 793 793 792 792 792 791 791 791 790 790 789 789 789 789 789 789 789 789 788 788 788 788 787 787 787 786 786 786 786 785 785 785 784 784 784 783 783 783 783 782 782 782 781 781 781
803 804 804 805 805 805 805 806 806 806 806 806 807 807 807 807 807 807 806 806 806 805 804 803 802 802 800 799 798 798 797 797 796 796 795 795 794 794 793 793 793 792 792 791 791 790 790 789 789 789 788 788 788 788 787 787 787 787 787 787 786 786 786 785 785 785 784 784 784 784 783 783 783 783 782 782 782 781 781 781 780 780 779 779 779 779
803 803 804 804 804 804 805 805 805 806 806 806 806 806 806 806 806 806 806 805 805 804 803 802 801 800 799 798 798 797 797 796 795 795 794 794 793 793 792 792 791 791 790 790 789 789 788 788 788 787 787 786 786 786 786 786 785 785 785 785 784 784 784 783 783 783 783 782 782 782 782 781 781 780 780 780 779 779 779 778 778 778 778 777 777 776
802 803 803 803 804 804 804 805 805 805 805 805 805 805 805 805 805 805 805 804 803 803 802 801 800 799 798 798 797 796 796 795 794 794 793 793 792 792 791 791 790 790 789 788 788 787 787 786 786 786 785 785 785 784 784 784 784 783 783 783 783 782 782 782 781 781 781 780 780 780 779 779 779 778 778 778 777 777 777 776 776 776 775 775 775 774
802 802 803 803 803 804 804 804 804 804 804 805 805 805 805 805 804 804 803 803 802 802 801 800 799 798 798 797 796 796 795 794 793 793 792 792 791 790 790 789 789 788 788 787 787 786 785 785 784 784 784 783 783 783 783 782 782 782 781 781 781 780 780 780 779 779 779 778 778 778 777 777 777 776 776 775 775 775 774 774 774 773 773 773 773 772
801 801 802 802 803 803 803 803 803 804 804 804 804 804 804 804 804 803 802 802 801 801 800 799 798 798 797 796 795 795 794 793 793 792 791 791 790 789 789 788 788 787 786 786 785 785 784 784 783 783 782 782 781 781 781 780 780 780 779 779 779 778 778 778 778 777 777 777 776 776 775 775 775 774 774 773 773 773 772 772 772 771 771 771 770 770
800 801 801 801 802 802 803 803 803 803 803 803 804 804 803 803 803 802 801 800 800 799 799 798 798 797 796 795 794 794 793 792 791 791 790 790 789 788 788 788 787 786 785 785 784 783 783 782 782 781 781 780 780 779 779 778 778 778 778 777 777 777 776 776 776 775 775 775 774 774 773 773 773 772 772 771 771 771 770 770 769 769 769 768 768 768
799 800 800 801 801 802 802 802 802 803 803 803 803 803 802 802 802 801 800 800 799 798 798 798 797 796 795 794 793 793 792 791 790 790 789 788 788 788 787 786 786 785 784 783 783 782 781 781 780 779 779 778 778 778 777 777 777 776 776 776 775 775 775 774 774 774 773 773 773 772 772 771 771 770 770 769 769 768 768 768 767 767 767 766 766 765
799 799 800 800 801 801 801 802 802 802 802 802 802 801 801 801 800 800 800 799 798 798 797 797 796 795 794 794 793 792 791 790 790 789 788 788 787 787 786 785 785 784 783 782 781 780 779 779 778 778 777 777 776 776 776 775 775 775 774 774 774 773 773 773 772 772 772 771 771 770 770 769 768 768 768 767 767 766 766 765 765 764 764 764 763 763
798 799 799 799 800 800 801 801 801 801 801 801 801 801 800 800 800 799 799 798 798 797 797 796 795 794 793 793 792 791 790 790 789 788 788 787 787 786 785 784 783 783 782 781 779 779 778 778 777 776 775 775 774 774 774 774 773 773 773 773 772 772 771 771 771 770 770 769 769 768 768 767 767 766 766 765 765 764 763 763 763 762 762 762 761 761
798 798 798 799 799 799 800 800 800 800 800 800 800 800 800 799 799 798 798 797 797 796 796 795 794 793 793 792 791 791 790 789 788 788 787 786 786 785 784 783 783 782 780 779 778 777 777 776 775 774 774 773 773 773 773 772 772 772 771 771 771 770 770 769 769 768 768 767 767 766 766 765 764 764 763 763 763 762 761 761 760 760 760 759 759 758
798 798 798 798 798 799 799 799 800 800 800 800 799 799 799 798 798 798 797 797 796 796 795 794 793 792 792 791 790 790 789 789 788 787 786 785 785 784 783 783 781 780 779 778 777 776 775 775 774 773 773 772 772 772 771 771 771 770 770 769 769 768 768 768 767 766 766 765 765 764 763 763 763 762 761 761 760 760 759 758 758 758 757 757 756 756
797 798 798 798 798 799 799 799 799 799 799 799 799 798 798 798 797 797 797 796 796 795 795 794 793 792 790 790 789 789 789 788 788 787 786 784 783 783 783 782 780 779 778 777 776 775 774 773 773 772 772 771 771 770 770 769 769 768 768 768 767 767 766 766 765 764 764 763 763 762 762 761 760 760 759 758 758 758 757 756 756 755 755 754 754 753
797 797 798 798 798 798 798 799 799 799 798 798 798 798 797 797 797 796 796 796 795 795 794 793 793 792 790 789 789 789 789 788 788 786 785 783 782 781 781 781 779 778 777 775 774 774 773 773 772 771 770 770 769 769 768 768 767 767 766 766 765 765 764 764 763 763 762 761 761 760 759 759 758 758 757 756 756 755 754 754 753 753 752 752 752 751
796 797 797 798 798 798 798 798 798 798 798 797 797 797 796 796 796 795 795 795 794 794 793 793 792 791 790 789 788 788 788 788 787 786 784 782 780 780 780 779 778 777 775 774 773 773 772 771 770 770 769 768 768 767 767 766 765 765 764 764 763 763 762 762 761 760 760 759 758 758 757 757 756 755 755 754 753 753 752 752 751 750 750 749 749 749
796 796 797 797 797 797 797 797 797 797 797 797 796 796 796 795 795 795 794 794 793 793 792 792 791 790 789 789 788 788 788 788 787 785 783 781 779 779 779 778 778 776 774 773 772 772 771 770 769 768 768 767 767 766 765 764 764 763 763 762 761 761 760 760 759 758 758 757 756 756 755 754 754 753 752 752 751 750 750 749 748 748 748 747 747 746
795 796 796 796 797 796 796 796 796 796 796 796 796 795 795 794 794 793 793 793 792 792 791 791 790 789 789 788 788 787 787 787 786 785 783 780 778 778 778 778 777 775 773 772 771 771 770 769 768 767 766 766 765 764 763 763 762 761 761 760 759 759 758 758 757 756 755 755 754 753 753 752 751 751 750 749 748 748 747 747 746 746 745 744 744 743
795 795 795 796 796 796 796 796 796 795 795 795 795 794 794 793 793 793 792 792 791 791 791 790 789 789 788 788 787 786 786 786 786 785 783 780 778 776 777 777 776 774 773 771 770 769 769 768 767 766 765 764 763 763 762 761 760 759 759 758 758 757 756 755 755 754 753 753 752 751 750 750 749 748 748 747 746 746 745 744 744 743 743 742 742 741
795 795 795 795 795 795 795 795 794 794 794 794 794 793 793 793 792 792 792 791 791 790 790 789 788 788 788 787 786 785 785 785 785 784 783 780 777 776 776 776 775 773 772 770 769 768 768 767 766 765 764 763 762 761 760 759 758 758 757 756 755 755 754 753 753 752 751 750 749 749 748 748 747 746 745 745 744 743 743 742 741 741 740 739 739 738
794 794 794 794 794 794 794 793 793 793 793 793 793 793 792 792 791 791 791 791 790 790 789 788 788 787 786 786 785 784 784 784 783 783 782 779 777 775 775 775 774 773 771 769 769 768 767 765 764 763 762 761 760 759 758 758 757 756 755 754 753 753 752 751 750 750 749 748 748 747 746 745 744 744 743 742 742 741 740 740 739 738 738 737 737 736
793 793 793 793 793 793 793 792 792 792 792 792 792 792 791 791 791 790 790 790 790 789 788 788 787 786 785 784 784 783 783 783 782 782 781 778 776 775 774 774 773 772 770 768 768 767 766 764 763 762 761 760 758 758 757 756 754 754 753 752 751 751 750 749 748 748 747 746 745 744 744 743 742 742 741 740 739 739 738 737 737 736 735 735 734 733
792 792 792 792 792 791 791 791 791 791 791 791 791 791 791 790 790 790 789 789 789 788 788 787 786 784 784 783 783 782 781 781 781 781 780 778 776 774 773 773 773 771 769 768 767 766 765 763 762 760 759 758 757 756 755 754 753 752 751 751 750 749 748 748 747 746 745 744 743 743 742 741 740 739 738 738 737 737 736 735 734 734 733 733 732 731
791 790 790 790 790 790 790 790 789 790 790 790 790 790 790 790 789 789 788 788 788 788 787 786 785 783 783 782 782 781 780 780 780 779 779 778 776 774 773 772 772 771 769 767 766 765 764 763 760 759 758 756 755 754 753 752 752 751 750 749 748 747 747 746 745 744 743 742 741 740 739 739 738 737 737 736 735 734 733 733 732 732 731 730 729 728
789 789 789 788 788 788 788 788 788 788 788 788 788 789 789 789 788 788 787 787 787 787 786 785 784 783 782 781 780 780 780 779 779 778 778 777 776 773 772 772 771 770 769 767 765 763 763 761 759 758 756 755 754 753 752 751 750 749 748 747 746 745 744 743 743 742 741 740 739 738 738 737 736 735 734 734 733 732 732 731 730 729 729 728 727 726
788 788 788 788 787 787 787 787 787 787 787 787 787 788 788 788 787 786 786 786 786 786 785 784 783 783 782 781 780 779 778 778 777 777 777 776 774 773 771 771 771 770 769 767 764 762 761 759 758 757 755 754 753 752 751 750 749 748 747 745 744 743 743 742 741 740 739 738 737 736 735 735 734 733 732 732 731 730 729 729 728 728 727 726 725 724
788 787 787 787 786 786 786 786 785 785 785 786 786 786 786 786 785 785 785 785 785 785 784 783 783 782 782 781 779 778 777 776 776 776 776 775 773 772 771 771 770 769 769 768 764 761 758 757 756 756 754 753 752 751 750 748 748 746 745 743 742 741 741 740 739 738 737 736 735 734 733 733 732 731 730 729 729 728 728 727 726 726 725 724 723 722
787 787 786 786 786 785 785 785 784 784 784 784 784 784 784 784 784 783 783 784 784 783 783 782 782 781 781 781 780 778 776 775 775 776 775 774 773 772 771 770 769 769 769 768 767 763 758 754 753 753 753 753 751 750 749 748 746 745 743 742 741 739 738 738 737 736 735 734 733 733 732 731 730 729 728 728 727 726 725 725 724 724 723 722 721 720
786 786 785 785 785 785 784 784 784 783 783 783 783 783 783 783 783 783 783 783 782 782 782 781 781 780 780 780 779 777 775 774 774 775 775 774 773 771 771 770 769 768 768 768 768 765 761 755 752 751 752 751 750 748 748 747 745 744 743 741 739 738 737 736 736 735 733 733 732 731 730 729 728 727 726 726 725 724 723 723 723 722 721 720 719 718
785 785 785 784 784 784 783 783 783 783 783 782 782 782 782 782 781 781 781 781 781 781 781 780 780 779 779 778 777 776 774 774 774 774 774 773 772 771 770 769 768 767 767 766 766 765 763 758 754 751 750 749 748 748 746 745 744 743 742 740 738 737 735 735 734 733 732 731 730 729 728 727 726 725 724 723 723 722 721 721 720 720 719 718 717 716
785 784 784 783 783 783 783 782 782 782 782 781 781 781 781 781 780 780 780 780 780 780 779 779 779 778 778 777 776 774 773 773 773 773 773 773 772 770 769 768 768 767 766 765 764 763 761 759 756 753 750 748 746 746 745 744 743 742 740 739 738 736 734 734 733 732 730 729 728 727 726 725 724 723 722 722 721 720 719 719 718 718 718 717 716 715
784 784 783 783 783 782 782 782 781 781 781 781 780 780 780 780 780 779 779 779 778 778 778 778 778 777 777 776 775 773 772 771 772 773 773 772 771 770 768 768 767 766 765 764 763 762 760 758 756 754 751 747 745 744 743 743 742 740 739 738 737 735 733 733 732 730 729 728 726 725 724 723 722 721 720 720 719 718 718 717 717 716 715 715 714 713
783 783 783 782 782 781 781 781 781 780 780 780 780 780 779 779 779 778 778 778 778 777 777 776 776 776 775 775 773 772 771 770 771 771 771 771 770 769 768 767 766 766 765 763 762 761 759 757 755 753 751 748 745 742 741 741 740 739 738 736 735 734 732 731 730 729 728 726 725 723 722 721 720 719 718 718 717 716 716 715 714 714 713 713 712 711
783 782 782 782 781 781 780 780 780 780 780 779 779 779 778 778 778 778 777 777 776 776 775 775 774 774 773 773 772 771 769 769 769 769 770 769 769 768 767 765 765 764 764 763 761 760 758 756 754 752 750 748 745 742 740 739 738 737 736 734 733 732 731 729 729 728 726 725 723 722 721 720 719 718 717 716 715 714 713 713 712 711 711 710 709 709
782 782 781 781 781 780 780 780 779 779 779 779 778 778 778 777 777 776 776 775 775 774 774 773 773 772 772 771 770 769 768 768 768 767 768 768 768 767 766 764 763 763 763 762 761 759 758 756 753 751 748 746 744 743 740 739 737 735 734 733 731 730 729 728 727 726 725 723 722 721 719 718 718 716 715 714 713 712 711 710 709 709 708 708 707 706
782 781 781 780 780 780 780 779 779 779 778 778 778 777 777 776 776 775 774 774 773 773 773 772 771 770 770 769 768 768 767 766 766 765 765 765 765 765 764 763 762 761 760 760 759 758 757 755 753 751 748 745 743 741 739 738 737 735 733 731 729 728 727 726 725 724 723 722 720 719 718 717 716 714 713 712 711 710 709 708 707 707 706 705 704 703
781 781 780 780 780 779 779 779 778 778 778 777 777 776 776 775 774 774 773 773 772 772 771 771 770 769 768 768 767 766 765 765 764 763 763 763 763 763 763 762 760 759 758 758 757 756 755 753 751 749 748 745 743 740 738 737 736 734 733 730 727 725 724 724 723 722 721 720 719 718 716 715 713 713 711 710 709 708 707 706 705 704 704 703 703 701
781 780 780 779 779 779 778 778 778 777 777 776 776 775 775 774 774 773 773 772 771 771 770 770 769 768 767 766 765 765 764 763 763 762 761 761 760 760 760 759 758 758 757 756 755 754 753 751 749 748 746 744 742 739 737 735 734 733 733 730 727 724 722 722 721 720 719 718 717 716 715 713 712 711 709 708 707 706 705 704 703 703 702 701 701 700
780 780 779 779 778 778 778 777 777 777 776 776 775 774 774 773 773 772 772 771 770 770 769 769 768 767 766 764 764 763 762 762 761 760 759 759 758 758 758 757 756 756 755 754 752 751 750 749 748 746 744 743 741 738 735 733 732 732 731 729 727 724 721 719 719 719 718 717 715 714 713 712 710 709 708 706 705 704 703 702 701 700 700 699 698 697
779 779 778 778 778 777 777 777 776 776 775 775 774 774 773 773 772 772 771 770 769 769 768 768 767 766 765 763 762 761 761 760 759 759 758 757 757 756 756 755 754 754 753 752 750 749 748 747 745 744 742 741 739 737 734 732 730 729 729 728 727 724 721 717 716 716 716 715 714 713 711 710 708 707 705 704 703 701 701 700 699 698 697 697 696 695
778 778 778 778 777 777 776 776 775 775 774 774 773 773 772 772 771 771 770 769 768 768 768 767 766 765 764 762 761 760 759 758 758 758 757 756 756 755 754 753 753 752 751 750 749 747 745 744 743 741 740 739 738 736 733 731 729 728 726 726 725 724 721 717 715 714 714 713 711 710 709 708 706 704 703 701 700 699 698 697 696 695 695 694 693 692
778 778 777 777 776 776 775 775 774 774 773 773 773 772 771 771 770 770 769 768 768 767 767 766 765 764 763 761 760 759 758 757 756 756 755 755 754 754 753 752 751 750 749 748 747 746 744 742 740 739 738 737 736 734 731 729 727 725 724 723 723 721 718 716 715 713 712 710 709 708 707 706 704 703 701 699 698 697 696 695 694 693 692 691 690 689
777 777 776 776 776 775 775 774 774 773 773 772 771 771 770 770 769 769 768 768 767 766 765 765 764 763 762 760 759 758 757 756 755 754 753 753 753 752 751 750 750 749 748 746 745 744 742 741 739 738 736 735 733 731 729 728 726 724 722 721 720 718 716 714 713 712 710 708 707 705 704 703 703 701 699 697 695 694 693 692 691 690 689 688 687 686
776 776 776 775 775 774 774 773 773 773 772 771 770 770 769 769 768 768 767 767 766 765 764 764 763 762 761 759 758 757 756 755 753 753 752 751 751 750 749 748 748 747 746 744 743 742 740 739 738 736 735 733 731 728 726 725 724 723 720 718 718 716 714 712 710 709 708 707 705 703 702 702 701 699 697 695 693 691 690 689 689 688 687 686 685 683
776 775 775 774 774 774 773 773 772 772 771 770 769 769 768 768 768 767 766 766 765 764 763 763 762 761 759 758 757 757 755 754 753 751 750 750 749 748 747 747 746 745 743 742 741 740 738 737 736 735 733 732 729 726 723 722 722 720 718 717 715 714 712 709 708 707 706 704 703 702 701 700 698 697 695 693 691 689 687 687 686 685 684 683 682 681
775 774 774 774 773 773 772 772 771 771 770 769 768 768 768 767 767 766 765 765 764 763 763 762 761 759 758 757 756 755 754 753 752 750 749 748 747 746 746 745 744 743 741 740 739 737 736 734 733 732 731 730 728 724 721 719 718 718 717 715 713 712 709 707 706 705 704 703 701 700 699 698 697 696 694 692 689 686 684 683 683 683 682 681 680 679
774 774 773 773 773 772 771 771 770 770 769 768 768 767 766 766 766 765 764 764 763 762 761 760 759 758 757 756 755 754 753 752 750 749 748 747 746 745 744 743 742 741 739 738 736 735 733 731 729 728 727 727 725 723 720 718 716 715 714 713 711 710 708 705 704 703 702 701 699 698 697 696 695 694 693 690 688 684 682 681 680 679 679 679 678 677
773 773 773 772 772 771 770 770 769 769 768 768 767 766 765 765 764 763 763 763 762 761 760 759 758 757 756 754 753 753 752 750 749 748 746 745 745 744 743 742 741 739 738 736 734 733 731 729 726 724 723 723 723 721 719 717 714 713 711 710 709 708 706 704 702 701 700 699 698 697 695 694 693 692 691 689 686 683 680 678 677 676 676 676 676 674